When you browse on this site, cookies collect data to enhance your experience and personalize the content and advertising you see.
Visit our Privacy Policy to learn more. By continuing to use the site, you agree to this use of cookies and data.
  • en Belgique
  • Liste des pays
  • À 7 jours
  • Température de l'eau
  • Carte satellitaire
  • Carte météo
  • Widgets météo
  • user-avatar
    Se connecter

    Météo par heure à Stuttgart

    Ce jour, 24 Juillet, Mercredi

    Heure Température Précipitation Vent Pression Humidité
    00:00 +23°C° 0 mm 1 m/s 738 mmHg 78%
    01:00 +22°C° 0 mm 1 m/s 737 mmHg 80%
    02:00 +22°C° 0 mm 1 m/s 737 mmHg 81%
    03:00 +21°C° 0 mm 1 m/s 737 mmHg 82%
    04:00 +21°C° 0 mm 1 m/s 737 mmHg 83%
    05:00 +22°C° 0 mm 1 m/s 737 mmHg 81%
    06:00 +23°C° 0 mm 1 m/s 737 mmHg 78%
    07:00 +24°C° 0 mm 1 m/s 737 mmHg 75%
    08:00 +26°C° 0 mm 1 m/s 737 mmHg 69%
    09:00 +28°C° 0 mm 1 m/s 737 mmHg 62%
    10:00 +30°C° 0 mm 1 m/s 737 mmHg 55%
    11:00 +32°C° 0 mm 1 m/s 737 mmHg 50%
    12:00 +33°C° 0 mm 1 m/s 737 mmHg 46%
    13:00 +33°C° 0 mm 0 m/s 737 mmHg 41%
    14:00 +33°C° 0 mm 0 m/s 737 mmHg 40%
    15:00 +33°C° 0 mm 0 m/s 737 mmHg 39%
    16:00 +33°C° 0 mm 0 m/s 737 mmHg 38%
    17:00 +34°C° 0 mm 1 m/s 736 mmHg 46%
    18:00 +32°C° 0 mm 1 m/s 736 mmHg 53%
    19:00 +31°C° 0 mm 1 m/s 736 mmHg 60%
    20:00 +29°C° 0 mm 1 m/s 736 mmHg 65%
    21:00 +28°C° 0 mm 1 m/s 737 mmHg 70%
    22:00 +26°C° 0 mm 1 m/s 737 mmHg 75%
    23:00 +26°C° 0 mm 1 m/s 737 mmHg 76%

    Demain, 25 Juillet, Jeudi

    Heure Température Précipitation Vent Pression Humidité
    00:00 +25°C° 0 mm 1 m/s 737 mmHg 78%
    01:00 +25°C° 0 mm 1 m/s 737 mmHg 79%
    02:00 +24°C° 0 mm 1 m/s 737 mmHg 80%
    03:00 +24°C° 0 mm 1 m/s 737 mmHg 81%
    04:00 +23°C° 0 mm 1 m/s 737 mmHg 82%
    05:00 +24°C° 0 mm 1 m/s 737 mmHg 79%
    06:00 +25°C° 0 mm 1 m/s 737 mmHg 77%
    07:00 +26°C° 0 mm 1 m/s 737 mmHg 74%
    08:00 +28°C° 0 mm 1 m/s 737 mmHg 67%
    09:00 +30°C° 0 mm 1 m/s 737 mmHg 60%
    10:00 +32°C° 0 mm 1 m/s 738 mmHg 53%
    11:00 +34°C° 0 mm 2 m/s 737 mmHg 49%
    12:00 +35°C° 0 mm 2 m/s 737 mmHg 45%
    13:00 +35°C° 0 mm 3 m/s 736 mmHg 41%
    14:00 +35°C° 0 mm 3 m/s 736 mmHg 42%
    15:00 +35°C° 0 mm 3 m/s 736 mmHg 43%
    16:00 +35°C° 0 mm 4 m/s 736 mmHg 44%
    17:00 +34°C° 0 mm 3 m/s 735 mmHg 50%
    18:00 +31°C° 0 mm 2 m/s 735 mmHg 56%
    19:00 +30°C° 0 mm 2 m/s 735 mmHg 62%
    20:00 +29°C° 0 mm 1 m/s 735 mmHg 65%
    21:00 +27°C° 0 mm 1 m/s 736 mmHg 68%
    22:00 +25°C° 0 mm 1 m/s 736 mmHg 72%
    23:00 +25°C° 0 mm 1 m/s 735 mmHg 73%

    Après-demain, 26 Juillet, Vendredi

    Heure Température Précipitation Vent Pression Humidité
    00:00 +24°C° 0 mm 1 m/s 735 mmHg 74%
    01:00 +24°C° 0 mm 1 m/s 735 mmHg 75%
    02:00 +23°C° 0 mm 1 m/s 735 mmHg 76%
    03:00 +23°C° 0 mm 1 m/s 735 mmHg 77%
    04:00 +23°C° 0 mm 1 m/s 734 mmHg 78%
    05:00 +23°C° 0 mm 1 m/s 734 mmHg 75%
    06:00 +24°C° 0 mm 1 m/s 734 mmHg 73%
    07:00 +25°C° 0 mm 1 m/s 734 mmHg 71%
    08:00 +27°C° 0 mm 1 m/s 734 mmHg 63%
    09:00 +29°C° 0 mm 2 m/s 734 mmHg 56%
    10:00 +31°C° 0 mm 2 m/s 734 mmHg 49%
    11:00 +31°C° 0 mm 3 m/s 734 mmHg 47%
    12:00 +33°C° 0 mm 3 m/s 733 mmHg 44%
    13:00 +34°C° 0 mm 3 m/s 733 mmHg 42%
    14:00 +34°C° 0 mm 3 m/s 733 mmHg 43%
    15:00 +34°C° 0 mm 3 m/s 732 mmHg 44%
    16:00 +34°C° 0 mm 3 m/s 732 mmHg 45%
    17:00 +31°C° 0 mm 3 m/s 732 mmHg 50%
    18:00 +30°C° 0 mm 2 m/s 731 mmHg 55%
    19:00 +29°C° 0 mm 2 m/s 731 mmHg 61%
    20:00 +27°C° 0 mm 2 m/s 731 mmHg 61%
    21:00 +26°C° 0 mm 2 m/s 731 mmHg 62%
    22:00 +25°C° 0 mm 1 m/s 730 mmHg 63%
    23:00 +24°C° 0 mm 1 m/s 730 mmHg 65%

    27 Juillet, Samedi

    Heure Température Précipitation Vent Pression Humidité
    00:00 +23°C° 0 mm 1 m/s 730 mmHg 67%
    01:00 +23°C° 0 mm 1 m/s 730 mmHg 70%
    02:00 +22°C° 0 mm 1 m/s 730 mmHg 73%
    03:00 +22°C° 0 mm 1 m/s 729 mmHg 76%
    04:00 +21°C° 0 mm 1 m/s 729 mmHg 79%
    05:00 +22°C° 0 mm 1 m/s 729 mmHg 77%
    06:00 +22°C° 0 mm 1 m/s 729 mmHg 76%
    07:00 +23°C° 0 mm 1 m/s 729 mmHg 75%
    08:00 +24°C° 0 mm 2 m/s 729 mmHg 69%
    09:00 +26°C° 0 mm 2 m/s 729 mmHg 63%
    10:00 +28°C° 0 mm 2 m/s 729 mmHg 58%
    11:00 +29°C° 0 mm 3 m/s 729 mmHg 55%
    12:00 +30°C° 0 mm 3 m/s 728 mmHg 52%
    13:00 +30°C° 0 mm 4 m/s 728 mmHg 49%
    14:00 +30°C° 0 mm 4 m/s 727 mmHg 49%
    15:00 +30°C° 0 mm 4 m/s 727 mmHg 50%
    16:00 +30°C° 0 mm 4 m/s 727 mmHg 50%
    17:00 +29°C° 0.2 mm 3 m/s 727 mmHg 54%
    18:00 +28°C° 0.2 mm 3 m/s 727 mmHg 59%
    19:00 +26°C° 0.2 mm 2 m/s 727 mmHg 63%
    20:00 +25°C° 0.1 mm 2 m/s 727 mmHg 64%
    21:00 +24°C° 0.1 mm 2 m/s 727 mmHg 66%
    22:00 +23°C° 0.1 mm 1 m/s 727 mmHg 67%
    23:00 +23°C° 0.3 mm 1 m/s 727 mmHg 70%

    28 Juillet, Dimanche

    Heure Température Précipitation Vent Pression Humidité
    00:00 +22°C° 0.3 mm 1 m/s 727 mmHg 74%
    01:00 +21°C° 0.3 mm 1 m/s 727 mmHg 77%
    02:00 +21°C° 0.6 mm 1 m/s 727 mmHg 81%
    03:00 +20°C° 0.6 mm 1 m/s 727 mmHg 85%
    04:00 +20°C° 0.6 mm 1 m/s 727 mmHg 89%
    05:00 +20°C° 0.2 mm 1 m/s 728 mmHg 88%
    06:00 +20°C° 0.2 mm 1 m/s 728 mmHg 88%
    07:00 +21°C° 0.2 mm 1 m/s 728 mmHg 87%
    08:00 +21°C° 0 mm 2 m/s 729 mmHg 82%
    09:00 +23°C° 0 mm 2 m/s 729 mmHg 77%
    10:00 +24°C° 0 mm 2 m/s 729 mmHg 72%
    11:00 +24°C° 0.4 mm 2 m/s 730 mmHg 73%
    12:00 +24°C° 0.4 mm 2 m/s 730 mmHg 74%
    13:00 +24°C° 0.4 mm 2 m/s 730 mmHg 74%
    14:00 +24°C° 0.8 mm 2 m/s 730 mmHg 75%
    15:00 +24°C° 0.8 mm 3 m/s 730 mmHg 76%
    16:00 +24°C° 0.8 mm 3 m/s 731 mmHg 77%
    17:00 +22°C° 0.3 mm 3 m/s 731 mmHg 79%
    18:00 +23°C° 0.3 mm 2 m/s 731 mmHg 80%
    19:00 +21°C° 0.3 mm 2 m/s 731 mmHg 82%
    20:00 +20°C° 0.1 mm 2 m/s 732 mmHg 85%
    21:00 +20°C° 0.1 mm 1 m/s 732 mmHg 87%
    22:00 +19°C° 0.1 mm 1 m/s 733 mmHg 90%
    23:00 +18°C° 0 mm 1 m/s 733 mmHg 90%

    29 Juillet, Lundi

    Heure Température Précipitation Vent Pression Humidité
    00:00 +18°C° 0 mm 1 m/s 733 mmHg 91%
    01:00 +18°C° 0 mm 1 m/s 733 mmHg 91%
    02:00 +16°C° 0 mm 1 m/s 733 mmHg 91%
    03:00 +16°C° 0 mm 1 m/s 733 mmHg 92%
    04:00 +15°C° 0 mm 0 m/s 734 mmHg 92%
    05:00 +16°C° 0 mm 0 m/s 734 mmHg 91%
    06:00 +16°C° 0 mm 0 m/s 734 mmHg 89%
    07:00 +17°C° 0 mm 0 m/s 734 mmHg 87%
    08:00 +20°C° 0 mm 1 m/s 735 mmHg 84%
    09:00 +21°C° 0 mm 1 m/s 735 mmHg 81%
    10:00 +22°C° 0 mm 1 m/s 735 mmHg 78%
    11:00 +23°C° 0 mm 1 m/s 735 mmHg 72%
    12:00 +25°C° 0 mm 1 m/s 735 mmHg 67%
    13:00 +26°C° 0 mm 2 m/s 735 mmHg 62%
    14:00 +27°C° 0 mm 2 m/s 735 mmHg 60%
    15:00 +28°C° 0 mm 2 m/s 735 mmHg 58%
    16:00 +28°C° 0 mm 2 m/s 735 mmHg 56%
    17:00 +28°C° 0 mm 1 m/s 735 mmHg 61%
    18:00 +27°C° 0 mm 1 m/s 735 mmHg 65%
    19:00 +26°C° 0 mm 1 m/s 735 mmHg 70%
    20:00 +25°C° 0 mm 1 m/s 735 mmHg 73%
    21:00 +22°C° 0 mm 0 m/s 735 mmHg 76%
    22:00 +20°C° 0 mm 0 m/s 735 mmHg 80%
    23:00 +20°C° 0 mm 0 m/s 735 mmHg 81%
    Voir plus